QPF
0.00 0.00 0.00 0.00 0.00 0.00 0.00 0.00 0.00 0.00 0.00 0.00 0.00 0.00 0.00 0.00 0.00 0.00 0.00 0.00 0.00 0.00 0.00 0.00 0.00 0.00 0.00 0.00 0.00 0.00 0.00 0.00 0.00 0.00 0.00 0.00 0.00 0.00 0.00 0.00 0.00 0.00 0.01 0.02
0.00 0.00 0.00 0.00 0.00 0.00 0.00 0.00 0.00 0.00 0.00 0.00 0.00 0.00 0.00 0.00 0.00 0.00 0.00 0.00 0.00 0.00 0.00 0.00 0.00 0.00 0.00 0.00 0.00 0.00 0.00 0.00 0.00 0.00 0.00 0.00 0.00 0.00 0.00 0.00 0.00 0.00 0.00 0.01
0.00 0.00 0.00 0.00 0.00 0.00 0.00 0.00 0.00 0.00 0.00 0.00 0.00 0.00 0.00 0.00 0.00 0.00 0.00 0.00 0.00 0.00 0.00 0.00 0.00 0.00 0.00 0.00 0.00 0.00 0.00 0.00 0.00 0.00 0.00 0.00 0.00 0.00 0.00 0.00 0.00 0.00 0.00 0.00
0.00 0.00 0.00 0.00 0.00 0.00 0.00 0.00 0.00 0.00 0.00 0.00 0.00 0.00 0.00 0.00 0.00 0.00 0.00 0.00 0.00 0.00 0.00 0.00 0.00 0.00 0.00 0.00 0.00 0.00 0.00 0.00 0.00 0.00 0.00 0.00 0.00 0.00 0.00 0.00 0.00 0.00 0.00 0.00
0.00 0.00 0.00 0.00 0.00 0.00 0.00 0.00 0.00 0.00 0.00 0.00 0.00 0.00 0.00 0.00 0.00 0.00 0.00 0.00 0.00 0.00 0.00 0.00 0.00 0.00 0.00 0.00 0.00 0.00 0.00 0.00 0.00 0.00 0.00 0.00 0.00 0.00 0.00 0.00 0.00 0.00 0.00 0.00
0.00 0.00 0.00 0.00 0.00 0.00 0.00 0.00 0.00 0.00 0.00 0.00 0.00 0.00 0.00 0.00 0.00 0.00 0.00 0.00 0.00 0.00 0.00 0.00 0.00 0.00 0.00 0.00 0.00 0.00 0.00 0.00 0.00 0.00 0.00 0.00 0.00 0.00 0.00 0.00 0.00 0.00 0.00 0.00
0.00 0.00 0.00 0.00 0.00 0.00 0.00 0.00 0.00 0.00 0.00 0.00 0.00 0.00 0.00 0.00 0.00 0.00 0.00 0.00 0.00 0.00 0.00 0.00 0.00 0.00 0.00 0.00 0.00 0.00 0.00 0.00 0.00 0.00 0.00 0.00 0.00 0.00 0.00 0.00 0.00 0.00 0.00 0.00
0.00 0.00 0.00 0.00 0.00 0.00 0.00 0.00 0.00 0.00 0.00 0.00 0.00 0.00 0.00 0.00 0.00 0.00 0.00 0.00 0.00 0.00 0.00 0.00 0.00 0.00 0.00 0.00 0.00 0.00 0.00 0.00 0.00 0.00 0.00 0.00 0.00 0.00 0.00 0.00 0.00 0.00 0.00 0.00
0.00 0.00 0.00 0.00 0.00 0.00 0.00 0.00 0.00 0.00 0.00 0.00 0.00 0.00 0.00 0.00 0.00 0.00 0.00 0.00 0.00 0.00 0.00 0.00 0.00 0.00 0.00 0.00 0.00 0.00 0.00 0.00 0.00 0.00 0.00 0.00 0.00 0.00 0.00 0.00 0.00 0.00 0.00 0.00
0.00 0.00 0.00 0.00 0.00 0.00 0.00 0.00 0.00 0.00 0.00 0.00 0.00 0.00 0.00 0.00 0.00 0.00 0.00 0.00 0.00 0.00 0.00 0.00 0.00 0.00 0.00 0.00 0.00 0.00 0.00 0.00 0.00 0.00 0.00 0.00 0.00 0.00 0.00 0.00 0.00 0.00 0.00 0.00
0.00 0.00 0.00 0.00 0.00 0.00 0.00 0.00 0.00 0.00 0.00 0.00 0.00 0.00 0.00 0.00 0.00 0.00 0.00 0.00 0.00 0.00 0.00 0.00 0.00 0.00 0.00 0.00 0.00 0.00 0.00 0.00 0.00 0.00 0.00 0.00 0.00 0.00 0.00 0.00 0.00 0.00 0.00 0.00
0.00 0.00 0.00 0.00 0.00 0.00 0.00 0.00 0.00 0.00 0.00 0.00 0.00 0.00 0.00 0.00 0.00 0.00 0.00 0.00 0.00 0.00 0.00 0.00 0.00 0.00 0.00 0.00 0.00 0.00 0.00 0.00 0.00 0.00 0.00 0.00 0.00 0.00 0.00 0.00 0.00 0.00 0.00 0.00
0.00 0.00 0.00 0.00 0.00 0.00 0.00 0.00 0.00 0.00 0.00 0.00 0.00 0.00 0.00 0.00 0.00 0.00 0.00 0.00 0.00 0.00 0.00 0.00 0.00 0.00 0.00 0.00 0.00 0.00 0.00 0.00 0.00 0.00 0.00 0.00 0.00 0.00 0.00 0.00 0.00 0.00 0.00 0.00
0.00 0.00 0.00 0.00 0.00 0.00 0.00 0.00 0.00 0.00 0.00 0.00 0.00 0.00 0.00 0.00 0.00 0.00 0.00 0.00 0.00 0.00 0.00 0.00 0.00 0.00 0.00 0.00 0.00 0.00 0.00 0.00 0.00 0.00 0.00 0.00 0.00 0.00 0.00 0.00 0.00 0.00 0.00 0.00
0.00 0.00 0.00 0.00 0.00 0.00 0.00 0.00 0.00 0.00 0.00 0.00 0.00 0.00 0.00 0.00 0.00 0.00 0.00 0.00 0.00 0.00 0.00 0.00 0.00 0.00 0.00 0.00 0.00 0.00 0.00 0.00 0.00 0.00 0.00 0.00 0.00 0.00 0.00 0.00 0.00 0.00 0.00 0.00
0.00 0.00 0.00 0.00 0.00 0.00 0.00 0.00 0.00 0.00 0.00 0.00 0.00 0.00 0.00 0.00 0.00 0.00 0.00 0.00 0.00 0.00 0.00 0.00 0.00 0.00 0.00 0.00 0.00 0.00 0.00 0.00 0.00 0.00 0.00 0.00 0.00 0.00 0.00 0.00 0.00 0.00 0.00 0.00
0.00 0.00 0.00 0.00 0.00 0.00 0.00 0.00 0.00 0.00 0.00 0.00 0.00 0.00 0.00 0.00 0.00 0.00 0.00 0.00 0.00 0.00 0.00 0.00 0.00 0.00 0.00 0.00 0.00 0.00 0.00 0.00 0.00 0.00 0.00 0.00 0.00 0.00 0.00 0.00 0.00 0.00 0.00 0.00
0.00 0.00 0.00 0.00 0.00 0.00 0.00 0.00 0.00 0.00 0.00 0.00 0.00 0.00 0.00 0.00 0.00 0.00 0.00 0.00 0.00 0.00 0.00 0.00 0.00 0.00 0.00 0.00 0.00 0.00 0.00 0.00 0.00 0.00 0.00 0.00 0.00 0.00 0.00 0.00 0.00 0.00 0.00 0.00
0.01 0.00 0.00 0.00 0.00 0.00 0.00 0.00 0.00 0.00 0.00 0.00 0.00 0.00 0.00 0.00 0.00 0.00 0.00 0.00 0.00 0.00 0.00 0.00 0.00 0.00 0.00 0.00 0.00 0.00 0.00 0.00 0.00 0.00 0.00 0.00 0.00 0.00 0.00 0.00 0.00 0.00 0.00 0.00
0.01 0.01 0.01 0.00 0.00 0.00 0.00 0.00 0.00 0.00 0.00 0.00 0.00 0.00 0.00 0.00 0.00 0.00 0.00 0.00 0.00 0.00 0.00 0.00 0.00 0.00 0.00 0.00 0.00 0.00 0.00 0.00 0.00 0.00 0.00 0.00 0.00 0.00 0.00 0.00 0.00 0.00 0.00 0.00
0.02 0.01 0.01 0.01 0.01 0.01 0.00 0.00 0.00 0.00 0.00 0.00 0.00 0.00 0.00 0.00 0.00 0.00 0.00 0.00 0.00 0.00 0.00 0.00 0.00 0.00 0.00 0.00 0.00 0.00 0.00 0.00 0.00 0.00 0.00 0.00 0.00 0.00 0.00 0.00 0.00 0.00 0.00 0.00
0.01 0.01 0.01 0.01 0.00 0.00 0.00 0.00 0.00 0.00 0.01 0.01 0.01 0.01 0.01 0.01 0.00 0.00 0.00 0.00 0.01 0.01 0.00 0.00 0.00 0.00 0.00 0.00 0.00 0.00 0.00 0.01 0.00 0.00 0.00 0.00 0.00 0.00 0.00 0.00 0.00 0.00 0.00 0.00
0.01 0.00 0.00 0.00 0.00 0.00 0.00 0.00 0.00 0.00 0.00 0.01 0.01 0.01 0.01 0.01 0.01 0.01 0.01 0.02 0.01 0.01 0.01 0.00 0.00 0.00 0.00 0.00 0.00 0.00 0.00 0.01 0.01 0.01 0.01 0.01 0.00 0.00 0.00 0.00 0.00 0.00 0.00 0.00
0.01 0.01 0.00 0.00 0.00 0.00 0.01 0.01 0.00 0.00 0.00 0.01 0.01 0.02 0.02 0.03 0.04 0.04 0.04 0.03 0.03 0.02 0.01 0.01 0.01 0.01 0.00 0.00 0.00 0.00 0.00 0.00 0.00 0.01 0.01 0.02 0.02 0.01 0.00 0.00 0.00 0.00 0.00 0.00
0.01 0.01 0.01 0.01 0.01 0.01 0.01 0.02 0.02 0.01 0.01 0.01 0.01 0.01 0.01 0.02 0.03 0.04 0.04 0.04 0.03 0.03 0.02 0.03 0.02 0.02 0.01 0.00 0.00 0.00 0.00 0.00 0.00 0.00 0.00 0.00 0.01 0.01 0.01 0.01 0.00 0.00 0.00 0.00
0.02 0.02 0.02 0.01 0.01 0.01 0.01 0.02 0.02 0.03 0.02 0.02 0.01 0.01 0.01 0.01 0.01 0.02 0.02 0.03 0.03 0.03 0.02 0.02 0.02 0.01 0.01 0.01 0.00 0.00 0.00 0.00 0.00 0.00 0.00 0.00 0.00 0.00 0.00 0.00 0.00 0.00 0.00 0.00
0.02 0.03 0.02 0.02 0.01 0.01 0.01 0.01 0.02 0.02 0.03 0.03 0.03 0.02 0.01 0.01 0.01 0.01 0.01 0.01 0.01 0.01 0.02 0.02 0.02 0.02 0.01 0.01 0.01 0.00 0.00 0.00 0.00 0.00 0.00 0.00 0.00 0.00 0.00 0.00 0.00 0.00 0.00 0.00
MSLP
1012.77 1012.87 1013.01 1013.15 1013.25 1013.27 1013.17 1012.90 1012.47 1011.88 1011.16 1010.39 1009.62 1008.93 1008.38 1007.99 1007.79 1007.77 1007.89 1008.12 1008.41 1008.74 1009.07 1009.40 1009.72 1010.07 1010.44 1010.84 1011.28 1011.74 1012.19 1012.61 1012.98 1013.27 1013.48 1013.60 1013.65 1013.66 1013.64 1013.63 1013.63 1013.65 1013.68 1013.71
1012.86 1012.91 1012.95 1012.97 1012.92 1012.79 1012.55 1012.18 1011.67 1011.06 1010.36 1009.64 1008.94 1008.32 1007.83 1007.48 1007.29 1007.25 1007.33 1007.50 1007.75 1008.03 1008.33 1008.66 1009.01 1009.39 1009.81 1010.27 1010.77 1011.28 1011.79 1012.26 1012.67 1013.01 1013.25 1013.42 1013.51 1013.56 1013.57 1013.57 1013.58 1013.59 1013.60 1013.61
1012.90 1012.90 1012.86 1012.75 1012.58 1012.31 1011.94 1011.47 1010.91 1010.27 1009.59 1008.92 1008.28 1007.72 1007.28 1006.97 1006.78 1006.72 1006.76 1006.89 1007.08 1007.32 1007.61 1007.93 1008.29 1008.70 1009.16 1009.67 1010.21 1010.77 1011.32 1011.83 1012.29 1012.67 1012.96 1013.17 1013.31 1013.39 1013.43 1013.45 1013.46 1013.46 1013.45 1013.43
1012.84 1012.78 1012.66 1012.47 1012.18 1011.81 1011.35 1010.81 1010.20 1009.56 1008.90 1008.27 1007.68 1007.19 1006.79 1006.50 1006.31 1006.23 1006.24 1006.33 1006.47 1006.68 1006.93 1007.24 1007.61 1008.04 1008.53 1009.07 1009.64 1010.23 1010.81 1011.35 1011.83 1012.24 1012.57 1012.82 1012.99 1013.11 1013.19 1013.22 1013.24 1013.23 1013.20 1013.14
1012.63 1012.52 1012.33 1012.07 1011.71 1011.27 1010.76 1010.18 1009.57 1008.94 1008.32 1007.73 1007.20 1006.75 1006.39 1006.12 1005.93 1005.83 1005.81 1005.85 1005.96 1006.13 1006.36 1006.65 1007.02 1007.45 1007.95 1008.50 1009.08 1009.68 1010.26 1010.81 1011.31 1011.73 1012.09 1012.37 1012.57 1012.72 1012.82 1012.88 1012.89 1012.88 1012.83 1012.75
1012.24 1012.07 1011.83 1011.52 1011.13 1010.67 1010.16 1009.60 1009.02 1008.43 1007.86 1007.33 1006.86 1006.45 1006.12 1005.85 1005.66 1005.54 1005.48 1005.48 1005.55 1005.69 1005.89 1006.17 1006.52 1006.95 1007.44 1007.98 1008.56 1009.14 1009.71 1010.25 1010.74 1011.17 1011.53 1011.83 1012.06 1012.23 1012.35 1012.42 1012.45 1012.43 1012.37 1012.28
1011.68 1011.44 1011.16 1010.83 1010.45 1010.02 1009.55 1009.05 1008.54 1008.03 1007.54 1007.07 1006.65 1006.28 1005.96 1005.70 1005.49 1005.34 1005.24 1005.20 1005.23 1005.34 1005.52 1005.77 1006.11 1006.52 1007.00 1007.52 1008.07 1008.62 1009.17 1009.68 1010.15 1010.57 1010.93 1011.24 1011.48 1011.68 1011.82 1011.91 1011.94 1011.93 1011.86 1011.76
1010.97 1010.66 1010.35 1010.03 1009.69 1009.33 1008.95 1008.55 1008.15 1007.73 1007.33 1006.93 1006.56 1006.21 1005.89 1005.61 1005.37 1005.18 1005.04 1004.96 1004.95 1005.02 1005.17 1005.41 1005.73 1006.12 1006.57 1007.07 1007.58 1008.11 1008.62 1009.10 1009.54 1009.95 1010.31 1010.61 1010.88 1011.09 1011.26 1011.37 1011.42 1011.42 1011.37 1011.27
1010.15 1009.79 1009.47 1009.18 1008.92 1008.66 1008.39 1008.12 1007.83 1007.52 1007.20 1006.86 1006.52 1006.18 1005.85 1005.53 1005.24 1004.99 1004.80 1004.67 1004.62 1004.66 1004.78 1005.00 1005.30 1005.68 1006.11 1006.57 1007.06 1007.55 1008.03 1008.49 1008.91 1009.31 1009.66 1009.98 1010.27 1010.51 1010.71 1010.85 1010.94 1010.96 1010.93 1010.85
1009.30 1008.91 1008.61 1008.37 1008.20 1008.05 1007.91 1007.75 1007.58 1007.36 1007.11 1006.82 1006.48 1006.13 1005.75 1005.38 1005.03 1004.71 1004.45 1004.27 1004.17 1004.18 1004.28 1004.48 1004.76 1005.12 1005.54 1005.99 1006.46 1006.93 1007.38 1007.82 1008.24 1008.63 1009.00 1009.34 1009.66 1009.94 1010.18 1010.38 1010.51 1010.58 1010.59 1010.54
1008.50 1008.11 1007.85 1007.69 1007.60 1007.56 1007.53 1007.48 1007.39 1007.25 1007.03 1006.74 1006.39 1005.99 1005.55 1005.11 1004.68 1004.28 1003.96 1003.71 1003.57 1003.54 1003.62 1003.80 1004.08 1004.42 1004.83 1005.27 1005.73 1006.19 1006.64 1007.08 1007.50 1007.91 1008.30 1008.68 1009.04 1009.38 1009.68 1009.94 1010.14 1010.28 1010.35 1010.35
1007.82 1007.47 1007.27 1007.19 1007.19 1007.24 1007.29 1007.31 1007.27 1007.14 1006.93 1006.61 1006.21 1005.74 1005.23 1004.70 1004.18 1003.71 1003.32 1003.02 1002.83 1002.76 1002.82 1002.98 1003.25 1003.59 1003.99 1004.43 1004.88 1005.35 1005.81 1006.26 1006.70 1007.14 1007.57 1008.00 1008.41 1008.82 1009.19 1009.53 1009.81 1010.03 1010.18 1010.25
1007.30 1007.03 1006.91 1006.91 1006.98 1007.09 1007.19 1007.23 1007.19 1007.05 1006.79 1006.42 1005.95 1005.40 1004.81 1004.20 1003.60 1003.06 1002.60 1002.25 1002.02 1001.92 1001.95 1002.10 1002.35 1002.69 1003.08 1003.52 1003.98 1004.45 1004.92 1005.39 1005.86 1006.33 1006.81 1007.29 1007.77 1008.25 1008.70 1009.12 1009.49 1009.80 1010.04 1010.20
1006.94 1006.78 1006.76 1006.83 1006.96 1007.09 1007.19 1007.22 1007.15 1006.95 1006.63 1006.19 1005.65 1005.02 1004.35 1003.67 1003.02 1002.42 1001.92 1001.53 1001.27 1001.14 1001.14 1001.27 1001.50 1001.82 1002.20 1002.63 1003.09 1003.57 1004.05 1004.54 1005.04 1005.55 1006.07 1006.61 1007.15 1007.69 1008.22 1008.72 1009.18 1009.58 1009.91 1010.16
1006.72 1006.70 1006.77 1006.91 1007.07 1007.20 1007.28 1007.26 1007.12 1006.86 1006.46 1005.95 1005.34 1004.66 1003.95 1003.23 1002.54 1001.92 1001.39 1000.97 1000.68 1000.53 1000.51 1000.60 1000.81 1001.10 1001.46 1001.88 1002.33 1002.80 1003.30 1003.80 1004.33 1004.87 1005.42 1006.00 1006.59 1007.18 1007.77 1008.34 1008.87 1009.34 1009.76 1010.10
1006.63 1006.73 1006.90 1007.08 1007.25 1007.36 1007.38 1007.30 1007.09 1006.76 1006.30 1005.75 1005.10 1004.39 1003.66 1002.94 1002.25 1001.62 1001.09 1000.66 1000.36 1000.18 1000.13 1000.19 1000.36 1000.62 1000.95 1001.34 1001.77 1002.24 1002.73 1003.25 1003.79 1004.35 1004.93 1005.53 1006.15 1006.77 1007.40 1008.01 1008.59 1009.13 1009.61 1010.03
1006.61 1006.83 1007.06 1007.27 1007.43 1007.50 1007.46 1007.31 1007.04 1006.66 1006.17 1005.59 1004.94 1004.25 1003.54 1002.85 1002.19 1001.59 1001.07 1000.65 1000.33 1000.13 1000.04 1000.07 1000.19 1000.41 1000.71 1001.07 1001.48 1001.94 1002.42 1002.94 1003.49 1004.05 1004.64 1005.26 1005.88 1006.52 1007.16 1007.79 1008.40 1008.97 1009.50 1009.97
1006.64 1006.94 1007.21 1007.41 1007.54 1007.56 1007.47 1007.26 1006.95 1006.54 1006.04 1005.48 1004.87 1004.23 1003.58 1002.94 1002.34 1001.78 1001.29 1000.88 1000.56 1000.33 1000.22 1000.20 1000.28 1000.46 1000.72 1001.05 1001.45 1001.89 1002.38 1002.90 1003.44 1004.01 1004.60 1005.21 1005.83 1006.46 1007.09 1007.72 1008.32 1008.90 1009.44 1009.94
1006.70 1007.03 1007.29 1007.47 1007.54 1007.51 1007.37 1007.12 1006.79 1006.38 1005.91 1005.40 1004.85 1004.29 1003.72 1003.17 1002.63 1002.12 1001.66 1001.27 1000.94 1000.70 1000.55 1000.50 1000.55 1000.69 1000.93 1001.25 1001.63 1002.08 1002.57 1003.09 1003.64 1004.21 1004.79 1005.39 1005.99 1006.60 1007.20 1007.80 1008.39 1008.95 1009.49 1009.99
1006.78 1007.08 1007.30 1007.42 1007.43 1007.34 1007.16 1006.89 1006.56 1006.18 1005.76 1005.32 1004.85 1004.38 1003.90 1003.42 1002.95 1002.49 1002.06 1001.68 1001.35 1001.10 1000.93 1000.86 1000.89 1001.02 1001.24 1001.56 1001.95 1002.41 1002.91 1003.44 1004.00 1004.57 1005.15 1005.73 1006.30 1006.88 1007.45 1008.01 1008.57 1009.11 1009.62 1010.11
1006.88 1007.10 1007.24 1007.28 1007.22 1007.07 1006.85 1006.57 1006.26 1005.92 1005.56 1005.19 1004.81 1004.42 1004.02 1003.61 1003.19 1002.78 1002.38 1002.00 1001.68 1001.42 1001.24 1001.17 1001.19 1001.33 1001.56 1001.90 1002.31 1002.79 1003.32 1003.87 1004.44 1005.01 1005.58 1006.14 1006.69 1007.24 1007.77 1008.30 1008.82 1009.33 1009.82 1010.29
1006.96 1007.08 1007.11 1007.05 1006.91 1006.71 1006.46 1006.18 1005.89 1005.59 1005.29 1004.99 1004.68 1004.36 1004.03 1003.67 1003.29 1002.91 1002.52 1002.16 1001.84 1001.59 1001.42 1001.36 1001.41 1001.57 1001.83 1002.20 1002.66 1003.17 1003.72 1004.29 1004.87 1005.45 1006.00 1006.54 1007.07 1007.58 1008.08 1008.58 1009.06 1009.55 1010.02 1010.48
1007.02 1007.01 1006.92 1006.76 1006.55 1006.30 1006.02 1005.75 1005.48 1005.21 1004.96 1004.71 1004.46 1004.18 1003.89 1003.56 1003.21 1002.84 1002.47 1002.13 1001.83 1001.60 1001.46 1001.43 1001.51 1001.72 1002.03 1002.45 1002.94 1003.48 1004.06 1004.65 1005.23 1005.79 1006.33 1006.85 1007.35 1007.83 1008.30 1008.77 1009.24 1009.71 1010.17 1010.63
1007.01 1006.87 1006.67 1006.42 1006.14 1005.84 1005.56 1005.28 1005.03 1004.80 1004.58 1004.36 1004.13 1003.89 1003.61 1003.30 1002.96 1002.61 1002.26 1001.93 1001.66 1001.47 1001.38 1001.40 1001.54 1001.80 1002.16 1002.62 1003.15 1003.72 1004.31 1004.89 1005.46 1006.01 1006.52 1007.00 1007.47 1007.92 1008.37 1008.83 1009.29 1009.75 1010.22 1010.69
1006.88 1006.63 1006.33 1006.01 1005.69 1005.37 1005.07 1004.80 1004.57 1004.35 1004.15 1003.95 1003.74 1003.50 1003.23 1002.93 1002.60 1002.26 1001.93 1001.64 1001.42 1001.28 1001.24 1001.33 1001.53 1001.84 1002.26 1002.76 1003.31 1003.88 1004.46 1005.03 1005.57 1006.08 1006.55 1007.00 1007.42 1007.85 1008.28 1008.73 1009.19 1009.66 1010.15 1010.64
1006.59 1006.26 1005.90 1005.54 1005.19 1004.86 1004.57 1004.31 1004.09 1003.89 1003.70 1003.51 1003.30 1003.06 1002.79 1002.49 1002.17 1001.86 1001.56 1001.32 1001.15 1001.07 1001.10 1001.25 1001.52 1001.89 1002.34 1002.86 1003.41 1003.98 1004.53 1005.06 1005.56 1006.01 1006.43 1006.84 1007.23 1007.63 1008.04 1008.49 1008.96 1009.45 1009.96 1010.48
1006.11 1005.74 1005.35 1004.98 1004.64 1004.32 1004.05 1003.82 1003.61 1003.42 1003.24 1003.05 1002.84 1002.60 1002.33 1002.04 1001.74 1001.45 1001.20 1001.01 1000.90 1000.89 1000.99 1001.20 1001.52 1001.93 1002.41 1002.93 1003.48 1004.01 1004.53 1005.00 1005.44 1005.84 1006.21 1006.57 1006.93 1007.31 1007.72 1008.16 1008.65 1009.17 1009.70 1010.25
Thickness
5726 5726 5725 5724 5724 5720 5720 5726 5723 5730 5733 5744 5753 5754 5756 5756 5755 5753 5751 5750 5748 5745 5744 5740 5737 5733 5729 5725 5720 5715 5710 5705 5702 5698 5694 5690 5687 5685 5681 5678 5677 5675 5673 5671
5722 5724 5722 5721 5726 5725 5722 5725 5726 5729 5734 5753 5756 5756 5755 5755 5753 5751 5751 5751 5750 5748 5745 5741 5738 5733 5729 5724 5721 5716 5711 5706 5702 5698 5694 5690 5687 5685 5682 5678 5677 5675 5673 5672
5716 5721 5718 5716 5730 5729 5728 5731 5730 5729 5742 5753 5751 5751 5754 5756 5754 5753 5753 5753 5751 5750 5747 5745 5742 5737 5730 5726 5722 5717 5712 5706 5702 5699 5694 5690 5688 5685 5681 5679 5677 5675 5674 5672
5713 5712 5698 5728 5740 5736 5730 5734 5739 5740 5746 5748 5750 5754 5757 5759 5757 5756 5755 5754 5752 5751 5749 5747 5744 5738 5733 5727 5722 5717 5712 5707 5702 5698 5694 5690 5687 5684 5681 5680 5677 5674 5673 5671
5708 5703 5710 5728 5734 5731 5726 5731 5744 5741 5744 5747 5749 5749 5755 5759 5759 5759 5758 5756 5754 5751 5749 5746 5741 5737 5731 5726 5721 5716 5711 5707 5702 5698 5693 5689 5686 5683 5682 5680 5677 5675 5673 5670
5703 5695 5696 5721 5734 5736 5728 5724 5743 5742 5742 5743 5742 5740 5750 5759 5756 5755 5754 5752 5750 5747 5746 5742 5738 5735 5729 5725 5720 5715 5710 5706 5702 5698 5693 5689 5686 5683 5681 5679 5676 5675 5674 5672
5700 5698 5711 5730 5729 5725 5711 5721 5737 5740 5741 5740 5740 5746 5752 5754 5752 5751 5749 5747 5745 5743 5740 5738 5735 5731 5726 5723 5719 5715 5710 5706 5701 5696 5692 5689 5685 5683 5680 5678 5675 5674 5673 5672
5700 5694 5704 5726 5723 5719 5725 5734 5734 5735 5737 5737 5740 5743 5745 5745 5744 5744 5742 5741 5739 5737 5735 5733 5731 5727 5724 5719 5717 5712 5707 5702 5698 5694 5691 5688 5684 5680 5678 5676 5674 5673 5672 5670
5706 5710 5719 5721 5722 5725 5726 5726 5728 5730 5733 5734 5734 5736 5738 5739 5740 5739 5738 5736 5734 5732 5729 5727 5725 5723 5720 5715 5712 5708 5702 5698 5695 5692 5688 5685 5682 5679 5676 5674 5673 5672 5670 5668
5699 5710 5713 5713 5715 5717 5718 5718 5723 5725 5727 5729 5730 5733 5734 5735 5735 5734 5733 5731 5729 5727 5725 5722 5719 5717 5716 5712 5708 5704 5699 5696 5692 5689 5686 5682 5678 5676 5673 5671 5669 5668 5666 5664
5691 5702 5704 5707 5707 5708 5709 5713 5716 5719 5722 5723 5725 5727 5730 5731 5731 5730 5727 5725 5724 5723 5721 5719 5715 5712 5709 5707 5703 5700 5696 5693 5689 5685 5682 5678 5674 5669 5667 5663 5661 5659 5660 5659
5683 5693 5692 5697 5701 5700 5700 5703 5706 5709 5714 5718 5719 5721 5723 5725 5726 5725 5722 5720 5718 5717 5716 5714 5711 5707 5704 5700 5698 5696 5692 5689 5685 5680 5676 5673 5669 5662 5654 5653 5649 5647 5646 5646
5679 5682 5683 5687 5690 5692 5692 5695 5699 5702 5705 5709 5713 5715 5716 5718 5718 5718 5716 5714 5713 5712 5710 5708 5705 5702 5698 5695 5693 5690 5687 5683 5679 5676 5672 5668 5665 5661 5655 5647 5641 5639 5638 5636
5667 5666 5669 5675 5678 5681 5684 5687 5691 5695 5699 5702 5705 5707 5708 5709 5709 5709 5709 5709 5707 5705 5703 5701 5698 5695 5692 5689 5685 5683 5681 5675 5672 5668 5666 5663 5660 5657 5654 5650 5645 5639 5632 5627
5653 5653 5657 5662 5666 5669 5673 5676 5680 5685 5689 5692 5695 5696 5698 5699 5700 5701 5701 5700 5698 5695 5694 5692 5689 5686 5684 5681 5678 5675 5672 5669 5665 5662 5659 5656 5653 5650 5647 5643 5639 5635 5630 5624
5638 5641 5644 5647 5651 5656 5660 5663 5667 5672 5677 5680 5682 5685 5687 5689 5690 5690 5690 5689 5687 5686 5685 5683 5680 5677 5674 5672 5669 5666 5663 5657 5656 5654 5651 5648 5645 5641 5638 5634 5631 5627 5623 5618
5620 5625 5628 5632 5636 5641 5645 5649 5654 5659 5664 5667 5670 5674 5675 5677 5677 5677 5677 5677 5677 5676 5675 5672 5670 5666 5663 5661 5659 5656 5653 5648 5643 5644 5642 5639 5635 5632 5628 5624 5620 5615 5611 5605
5605 5608 5611 5615 5619 5624 5630 5635 5640 5645 5649 5654 5657 5660 5662 5664 5665 5665 5665 5664 5663 5662 5661 5660 5657 5654 5651 5650 5648 5646 5643 5640 5636 5634 5630 5627 5624 5620 5616 5612 5608 5603 5598 5593
5588 5592 5595 5599 5603 5609 5615 5621 5626 5631 5635 5639 5643 5646 5649 5652 5653 5653 5652 5650 5650 5649 5647 5646 5642 5641 5639 5636 5634 5632 5631 5628 5625 5621 5618 5612 5611 5608 5605 5601 5597 5592 5588 5584
5574 5577 5581 5585 5590 5595 5600 5606 5612 5617 5621 5625 5628 5632 5635 5637 5638 5638 5637 5637 5638 5638 5635 5631 5629 5628 5625 5622 5619 5619 5618 5615 5612 5608 5605 5602 5600 5597 5593 5589 5585 5581 5577 5573
5560 5564 5567 5571 5575 5580 5585 5591 5597 5602 5607 5611 5614 5618 5621 5623 5623 5623 5623 5622 5621 5620 5618 5615 5615 5613 5611 5607 5604 5605 5603 5601 5598 5595 5592 5589 5587 5584 5580 5577 5573 5569 5565 5561
5546 5549 5553 5557 5561 5566 5571 5576 5582 5586 5591 5595 5599 5602 5605 5605 5606 5607 5608 5608 5606 5602 5602 5601 5600 5597 5595 5591 5591 5589 5588 5586 5584 5581 5579 5576 5573 5570 5567 5564 5560 5556 5552 5548
5533 5536 5539 5543 5548 5552 5557 5562 5566 5571 5575 5579 5583 5586 5588 5589 5590 5591 5592 5592 5590 5587 5587 5586 5584 5580 5577 5577 5576 5574 5572 5571 5569 5567 5564 5562 5560 5556 5553 5549 5546 5542 5539 5535
5521 5524 5526 5530 5534 5539 5543 5547 5550 5555 5559 5563 5567 5570 5571 5572 5574 5576 5577 5574 5573 5571 5572 5569 5566 5565 5562 5563 5561 5560 5558 5556 5554 5552 5549 5547 5545 5542 5539 5536 5532 5529 5525 5521
5509 5512 5515 5518 5522 5526 5530 5533 5536 5540 5544 5547 5551 5553 5555 5557 5558 5559 5559 5558 5556 5555 5555 5552 5551 5549 5549 5549 5548 5546 5545 5543 5540 5538 5535 5533 5530 5528 5525 5522 5519 5516 5513 5509
5499 5501 5504 5507 5510 5512 5516 5519 5522 5526 5529 5532 5535 5538 5539 5541 5542 5543 5543 5542 5542 5540 5540 5538 5536 5535 5536 5535 5534 5533 5531 5528 5525 5523 5522 5520 5517 5514 5512 5509 5505 5503 5500 5497
5490 5492 5494 5497 5500 5502 5505 5507 5510 5513 5516 5519 5521 5523 5525 5526 5527 5528 5529 5529 5528 5528 5527 5525 5524 5523 5522 5521 5520 5519 5517 5515 5513 5511 5509 5507 5505 5502 5499 5496 5493 5490 5486 5483